Back to catalog

BREEZE-M DEB

AliveHEO
NORAD 39330·DEBRIS·🇷🇺 Russia

Launched Mar 14, 2008 from Baikonur Cosmodrome

Loading…

Next Passes (next 24 hours)

TLE

FreshSource: Space-Track

Epoch: Sep 5, 2026, 14:51 UTC

1 39330U 08011DH  26248.61886167 -.00001026  00000-0 -15417-1 0  9993
2 39330  49.9478  57.8196 6502853  98.7791 342.3804  3.01139819142058

Track BREEZE-M DEB in real time with AllMySat

Download on the App Store